Weather History for Oscoda, MI

Change the Weather History Date:

Tuesday, January 22, 2013

  Actual Average Record
Temperature  
Mean Temperature 3 °F -  
Max Temperature 8 °F 24 °F 44 °F (1997)
Min Temperature -2 °F 10 °F -14 °F (2014)
Degree Days  
Heating Degree Days 62    
Moisture  
Dew Point -8 °F    
Average Humidity 64    
Maximum Humidity 79    
Minimum Humidity 45    
Precipitation  
Precipitation 0.00 in - - ()
Sea Level Pressure  
Sea Level Pressure 30.12 in    
Wind  
Wind Speed 10 mph (West)    
Max Wind Speed 18 mph    
Max Gust Speed 23 mph    
Visibility 10 miles    
Events Snow    
Averages and records for this station are not official NWS values.
T = Trace of Precipitation, MM = Missing Value Source: NWS Daily Summary

Daily Weather History Graph

Daily Weather History Graph

Search for Another Location

Airport:

Trip Planner

Search our weather history database for the weather conditions in past years. The results will help you decide how hot, cold, wet, or windy it might be!

Date:

Astronomy

Jan. 22, 2013 Rise Set
Actual Time 8:01 AM EST 5:29 PM EST
Civil Twilight 7:29 AM EST 6:01 PM EST
Nautical Twilight 6:54 AM EST 6:36 PM EST
Astronomical Twilight 6:19 AM EST 7:11 PM EST
Moon 1:49 PM EST (1/22) 4:23 AM EST (1/22)
Length of Visible Light 10h 31m
Length of Day
9h 27m
Waxing Gibbous, 82% of the Moon is Illuminated
Jan 22
Waxing Gibbous
Jan 26
Full
Feb 3
Last Quarter
Feb 10
New
Feb 17
First Quarter

Hourly Weather History & Observations

Time (EST) Temp. Windchill Dew Point Humidity Pressure Visibility Wind Dir Wind Speed Gust Speed Precip Events Conditions
12:13 AM 1.8 °F - -4.0 °F 77% 29.99 in 7.0 mi North - - N/A   Mostly Cloudy
12:34 AM 1.8 °F - -3.6 °F 78% 29.99 in 7.0 mi North - - N/A   Mostly Cloudy
12:54 AM 1.4 °F - -3.6 °F 79% 29.99 in 7.0 mi North - - N/A   Mostly Cloudy
1:13 AM 1.6 °F - -3.5 °F 79% 29.99 in 10.0 mi North - - N/A   Mostly Cloudy
1:34 AM 1.6 °F - -5.8 °F 71% 30.00 in 10.0 mi North - - N/A   Scattered Clouds
1:54 AM 1.4 °F - -7.6 °F 66% 30.00 in 10.0 mi North - - N/A   Mostly Cloudy
2:13 AM 0.5 °F - -5.3 °F 77% 30.01 in 10.0 mi North - - N/A   Scattered Clouds
2:34 AM 0.3 °F - -7.1 °F 71% 30.02 in 10.0 mi North - - N/A   Scattered Clouds
2:54 AM -0.6 °F - -8.3 °F 70% 30.02 in 10.0 mi North - - N/A   Clear
3:13 AM -0.8 °F - -8.5 °F 70% 30.03 in 10.0 mi North - - N/A   Clear
3:34 AM -1.3 °F - -8.9 °F 70% 30.03 in 10.0 mi North - - N/A   Clear
3:54 AM -1.7 °F - -9.4 °F 70% 30.03 in 10.0 mi North - - N/A   Clear
4:13 AM -2.2 °F - -9.4 °F 71% 30.04 in 10.0 mi North - - N/A   Scattered Clouds
4:34 AM -2.2 °F - -9.4 °F 71% 30.04 in 10.0 mi North - - N/A   Mostly Cloudy
4:53 AM -1.7 °F - -9.4 °F 70% 30.04 in 10.0 mi North - - N/A   Mostly Cloudy
5:14 AM -2.2 °F - -10.3 °F 68% 30.05 in 10.0 mi North - - N/A   Scattered Clouds
5:34 AM -2.2 °F - -9.8 °F 70% 30.06 in 10.0 mi North - - N/A   Clear
5:53 AM -2.4 °F - -9.9 °F 70% 30.06 in 10.0 mi North - - N/A   Clear
6:14 AM -2.6 °F - -9.6 °F 72% 30.06 in 10.0 mi North - - N/A   Clear
6:34 AM -2.7 °F - -9.6 °F 73% 30.07 in 10.0 mi North - - N/A   Clear
6:53 AM -2.6 °F - -9.4 °F 73% 30.07 in 10.0 mi North - - N/A   Clear
7:14 AM -2.6 °F - -9.4 °F 73% 30.08 in 10.0 mi North - - N/A   Clear
7:34 AM -2.6 °F - -9.2 °F 73% 30.08 in 10.0 mi North - - N/A   Clear
7:53 AM -2.2 °F - -8.5 °F 75% 30.09 in 10.0 mi North - - N/A   Clear
8:14 AM -0.4 °F - -7.6 °F 72% - 10.0 mi North - - N/A   Clear
8:34 AM - - - N/A% - - North - - N/A   Unknown
8:53 AM - - - N/A% - - North - - N/A   Unknown
9:14 AM 0.9 °F - -6.7 °F 71% 30.13 in 10.0 mi North - - N/A   Unknown
9:34 AM 1.9 °F - -6.7 °F 67% 30.14 in 10.0 mi North - - N/A   Clear
9:53 AM 3.0 °F - -6.3 °F 65% 30.15 in 10.0 mi North - - N/A   Scattered Clouds
10:14 AM 3.4 °F - -6.0 °F 65% 30.15 in 10.0 mi North - - N/A   Mostly Cloudy
10:34 AM 4.6 °F - -5.4 °F 63% 30.15 in 10.0 mi North - - N/A   Overcast
10:53 AM 5.7 °F - -4.2 °F 64% 30.15 in 10.0 mi North - - N/A   Mostly Cloudy
11:14 AM 5.0 °F - -4.5 °F 65% 30.16 in 4.0 mi North - - N/A   Haze
11:33 AM 5.7 °F - -3.3 °F 66% 30.16 in 2.5 mi North - - N/A   Haze
11:53 AM 6.6 °F - -4.4 °F 61% 30.15 in 7.0 mi North - - N/A   Overcast
12:14 PM 7.7 °F - -5.6 °F 55% 30.15 in 10.0 mi North - - N/A   Overcast
12:33 PM 6.6 °F - -7.4 °F 53% 30.15 in 10.0 mi North - - N/A   Overcast
12:53 PM 6.4 °F - -4.4 °F 61% 30.15 in 5.0 mi North - - N/A Snow Light Snow
1:14 PM 7.0 °F - -7.2 °F 52% 30.14 in 10.0 mi North - - N/A   Overcast
1:33 PM 7.7 °F -6.6 °F -8.7 °F 47% 30.13 in 10.0 mi WNW 10.4 mph - N/A   Overcast
1:54 PM 8.4 °F -7.9 °F -7.8 °F 48% 30.13 in 10.0 mi WSW 13.8 mph 19.6 mph N/A   Overcast
2:14 PM 7.5 °F -6.9 °F -8.5 °F 48% 30.14 in 10.0 mi West 10.4 mph 18.4 mph N/A   Overcast
2:33 PM 8.1 °F -8.4 °F -8.3 °F 47% 30.14 in 10.0 mi WSW 13.8 mph 17.3 mph N/A   Overcast
2:54 PM 8.4 °F -10.3 °F -9.2 °F 45% 30.14 in 10.0 mi WSW 18.4 mph 23.0 mph N/A   Overcast
3:14 PM 7.9 °F -10.4 °F -8.1 °F 48% 30.15 in 10.0 mi West 17.3 mph 20.7 mph N/A   Overcast
3:33 PM 8.2 °F -6.8 °F -7.1 °F 50% 30.15 in 10.0 mi West 11.5 mph 21.9 mph N/A   Overcast
3:54 PM 7.7 °F -10.7 °F -6.9 °F 52% 30.15 in 10.0 mi West 17.3 mph 21.9 mph N/A   Overcast
4:14 PM 7.3 °F -7.9 °F -10.1 °F 45% 30.15 in 10.0 mi WSW 11.5 mph - N/A   Overcast
4:33 PM 7.7 °F -8.9 °F -9.9 °F 45% 30.15 in 10.0 mi West 13.8 mph 23.0 mph N/A   Overcast
4:54 PM 6.6 °F -8.8 °F -7.4 °F 53% 30.16 in 10.0 mi West 11.5 mph - N/A   Mostly Cloudy
5:14 PM 5.5 °F -7.4 °F -7.6 °F 55% 30.17 in 10.0 mi West 8.1 mph - N/A   Mostly Cloudy
5:33 PM 5.9 °F -7.0 °F -9.0 °F 50% 30.17 in 10.0 mi West 8.1 mph 11.5 mph N/A   Overcast
5:54 PM 5.5 °F -6.3 °F -8.9 °F 52% 30.18 in 10.0 mi West 6.9 mph 10.4 mph N/A   Overcast
6:14 PM 4.1 °F -8.0 °F -8.5 °F 56% 30.18 in 10.0 mi West 6.9 mph - N/A   Mostly Cloudy
6:33 PM 3.6 °F -8.7 °F -9.4 °F 55% 30.19 in 10.0 mi West 6.9 mph - N/A   Mostly Cloudy
6:54 PM 0.5 °F -12.3 °F -8.9 °F 65% 30.19 in 10.0 mi WSW 6.9 mph - N/A   Clear
7:14 PM 0.1 °F -12.8 °F -8.7 °F 66% 30.20 in 10.0 mi WSW 6.9 mph - N/A   Clear
7:33 PM 1.4 °F -12.5 °F -8.5 °F 63% 30.20 in 10.0 mi West 8.1 mph - N/A   Clear
7:54 PM 1.0 °F -12.9 °F -8.5 °F 64% 30.20 in 10.0 mi WSW 8.1 mph - N/A   Clear
8:14 PM 0.9 °F -11.9 °F -8.7 °F 64% 30.20 in 10.0 mi WSW 6.9 mph - N/A   Clear
8:33 PM 0.5 °F -13.6 °F -9.0 °F 64% 30.20 in 10.0 mi WSW 8.1 mph - N/A   Clear
8:54 PM -0.4 °F -14.7 °F -9.4 °F 66% 30.20 in 10.0 mi WSW 8.1 mph - N/A   Clear
9:14 PM 0.3 °F -12.6 °F -9.4 °F 64% 30.20 in 10.0 mi WSW 6.9 mph - N/A   Scattered Clouds
9:33 PM -0.4 °F -13.4 °F -9.4 °F 66% 30.20 in 10.0 mi WSW 6.9 mph - N/A   Scattered Clouds
9:54 PM -1.5 °F -14.7 °F -9.4 °F 69% 30.20 in 10.0 mi WSW 6.9 mph - N/A   Scattered Clouds
10:13 PM 0.3 °F -13.8 °F -7.8 °F 69% 30.20 in 10.0 mi WSW 8.1 mph - N/A   Mostly Cloudy
10:34 PM 1.2 °F -12.7 °F -6.9 °F 69% 30.20 in 10.0 mi WSW 8.1 mph - N/A   Overcast
10:54 PM 1.2 °F -10.1 °F -6.7 °F 69% 30.20 in 10.0 mi WSW 5.8 mph - N/A   Overcast
11:13 PM 0.9 °F -8.9 °F -7.2 °F 69% 30.20 in 10.0 mi West 4.6 mph - N/A   Overcast
11:34 PM -0.4 °F -8.3 °F -7.6 °F 72% 30.21 in 10.0 mi West 3.5 mph - N/A   Mostly Cloudy
11:54 PM -0.8 °F -10.8 °F -7.6 °F 73% 30.20 in 10.0 mi WSW 4.6 mph - N/A   Overcast